Regional Weather Roundup
Issued by NWS Upton, NY

Home | Current Version | Previous Version | Text Only | Print | Product List | Glossary On
Versions: 1 2 3 4 5 6 7 8 9 10 11 12 13 14 15 16 17 18 19 20 21 22 23 24 25 26
000
ASUS41 KOKX 241405
RWROKX

REGIONAL WEATHER ROUNDUP
NATIONAL WEATHER SERVICE NEW YORK NY
1000 AM EDT THU APR 24 2014

NOTE: "FAIR" INDICATES FEW OR NO CLOUDS BELOW 12,000 FEET WITH NO
SIGNIFICANT WEATHER AND/OR OBSTRUCTIONS TO VISIBILITY.

NYZ071-072-176-178-NJZ106-104-241500-
NEW YORK CITY METRO AREA


CITY           SKY/WX    TMP DP  RH WIND       PRES   REMARKS
CENTRAL PARK   SUNNY     48  13  24 NW15G24   29.94R
LAGUARDIA APRT SUNNY     48  16  27 NW25G36   29.91F
KENNEDY INTL   SUNNY     51  12  21 NW25G36   29.92S
NEWARK/LIBERTY SUNNY     51  13  21 NW26G38   29.93S
TETERBORO      SUNNY     51  16  24 NW22G30   29.90F
$$

NYZ177-179-078>081-241500-
LONG ISLAND NEW YORK

CITY           SKY/WX    TMP DP  RH WIND       PRES   REMARKS
FARMINGDALE    SUNNY     48  14  25 NW14G28   29.89R
ISLIP          MOSUNNY   50  13  22 NW28G35   29.83F
SHIRLEY        SUNNY     50  15  24 NW16G30   29.84F
WESTHAMPTON    SUNNY     50  14  23 NW23G30   29.83F
MONTAUK POINT    N/A     49  23  36 MISG      29.78F
$$

NYZ052-065-067-241500-
HUDSON VALLEY

CITY           SKY/WX    TMP DP  RH WIND       PRES   REMARKS
WHITE PLAINS   SUNNY     48  15  26 NW17G28   29.86F
NEWBURGH       SUNNY     48  18  29 N23G32    29.89
MONTGOMERY     SUNNY     48  16  27 NW20G36   29.90F
POUGHKEEPSIE   SUNNY     49  15  25 NW21G31   29.87F
ALBANY         SUNNY     45  15  30 NW17G35   29.92R
$$

NJZ001-105-106-008-010-013-015-019>022-104-241500-
NEW JERSEY

CITY           SKY/WX    TMP DP  RH WIND       PRES   REMARKS
NEWARK/LIBERTY SUNNY     51  13  21 NW26G38   29.93S
TETERBORO      SUNNY     51  16  24 NW22G30   29.90F
CALDWELL       SUNNY     48  14  25 NW17G26   29.93F
MORRISTOWN     SUNNY     48  16  27 NW15G28   29.95S
SOMERVILLE     SUNNY     49  14  24 NW21G30   29.96S
LINDEN         FAIR      51  18  27 NW20G26   29.96S
SUSSEX         SUNNY     49  16  26 NW12G20   29.95S
ANDOVER          N/A     47  16  29 N12G22    29.96F
TRENTON        SUNNY     49  17  28 NW18G29   29.99S
MILLVILLE      SUNNY     50  19  29 NW18G26   30.03S
ATLANTIC CITY  SUNNY     51  16  24 NW23G33   30.00R
WRIGHTSTOWN    SUNNY     50  17  27 NW22G30   29.97S
TOMS RIVER     SUNNY     37  19  48 NW16G26   29.97S WCI  28
BELMAR         SUNNY     48  18  29 NW21G33   29.95S
$$

PAZ047>061-062-071-241500-
EASTERN PENNSYLVANIA

CITY           SKY/WX    TMP DP  RH WIND       PRES   REMARKS
PHILADELPHIA   SUNNY     49  13  23 NW17G28   30.06R
ALLENTOWN      SUNNY     48  15  26 NW16G26   30.02S
SCRANTON       SUNNY     45  17  32 NW16G33   30.01S
$$

CTZ002-004>006-009-010-012-RIZ004-006-007-MAZ004-011-015-241500-
SOUTHERN NEW ENGLAND
 IN CT

CITY           SKY/WX    TMP DP  RH WIND       PRES   REMARKS
BRADLEY INTL   SUNNY     47  12  24 NW20G37   29.79S
HARTFORD       SUNNY     48  14  25 N23G32    29.80S
DANBURY        SUNNY     48  15  26 NW10G24   29.86F
WTRBRY/OXFORD  NOT AVBL
BRIDGEPORT     SUNNY     51  13  21 NW21G29   29.83F
MERIDEN        SUNNY     48  11  22 NW28G39   29.81F
NEW HAVEN      SUNNY     50  14  23 NW9G26    29.82F
CHESTER        FAIR      46  14  27 NW12G21   29.78F
GROTON         SUNNY     49  14  24 NW25G38   29.75F
WILLIMANTIC    SUNNY     47  12  24 NW21G36   29.77S

 IN RI

CITY           SKY/WX    TMP DP  RH WIND       PRES   REMARKS
PROVIDENCE     MOSUNNY   48  13  24 NW28G38   29.71S
BLOCK ISLAND   NOT AVBL
WESTERLY       SUNNY     49  15  25 NW10G25   29.74F

 IN MA

CITY           SKY/WX    TMP DP  RH WIND       PRES   REMARKS
BOSTON         MOSUNNY   47  19  33 NW25G36   29.68S
WORCESTER      SUNNY     42  15  33 NW22G31   29.71R
WESTFIELD      SUNNY     48  14  25 NW21G29   29.78F
PROVINCETOWN   SUNNY     45  27  49 MISG      29.65S
NANTUCKET      SUNNY     49  19  30 NW22G37   29.64S
$$

ANZ330-335-338-340-345-350-353-355-241500-
COASTAL MARINE OBSERVATIONS


STATION/POSITION TIME  SKY/WX   TEMP    WIND        PRES    VSBY  WAVE
                                AIR SEA DIR/SP/G                  HT/PER
                 (UTC)          (F)     (DEG/KT/KT) (MB)    (MI)  (FT/S)
NY HARB ENTRANCE 1400            45 44  VRB 19/ 25  1013.0
4S FIRE IS       1300               45                N/A           3/ 4
23SW MTP         1400            43 43  290/ 25/ 31 1008.0          5/ 6
HUDSON CANYON    1300            44 45  310/ 23/ 29 1011.4          8/ 7
EXECUTION ROCKS  1400            47 45  330/ 19/ 31   N/A
WESTERN LI SOUND 1400            45     300/ 14/ 21   N/A           1/ 2
CENTRAL LI SOUND 1400            44 43  300/ 19/ 23   N/A           3/ 4
EASTERN LI SOUND NOT AVBL
ROBBINS REEF     1400            47     310/ 24/ 31   N/A
$$


>>>>>>>>>>>>>>>>>>>>>>>>>>>> KEY <<<<<<<<<<<<<<<<<<<<<<<<<<<
>                                                          <
>     SKY/WX - SKY CONDITION/PRESENT WEATHER               <
>     TMP    - TEMPERATURE IN FAHRENHEIT                   <
>     DP     - DEWPOINT IN FAHRENHEIT                      <
>     RH     - RELATIVE HUMIDITY IN PERCENT                <
>     WIND   - DIRECTION AND SPEED IN MPH                  <
>     PRES   - MEAN SEA LEVEL PRESSURE IN INCHES OF HG     <
>     WCI    - WIND CHILL INDEX                            <
>     VSB    - VISIBILITY IN MILES                         <
>     HX     - HEAT INDEX                                  <
>     TC     - TEMPERATURE IN CELSIUS                      <
>     VRB    - VARIABLE WIND DIRECTION                     <
>                                                          <
>>>>>>>>>>>>>>>>>>>>>>>>>>>> KEY <<<<<<<<<<<<<<<<<<<<<<<<<<<





USA.gov is the U.S. government's official web portal to all federal, state and local government web resources and services.